Weather History for Pasco, WA

Change the Weather History Date:

Monday, July 29, 2013

  Actual Average Record
Temperature  
Mean Temperature 75 °F 75 °F  
Max Temperature 91 °F 93 °F 107 °F (2014)
Min Temperature 59 °F 58 °F 54 °F (1989)
Degree Days  
Heating Degree Days 0 0  
Month to date heating degree days 0 1  
Since 1 June heating degree days 19 33  
Since 1 July heating degree days 0 1  
Cooling Degree Days 10 10  
Month to date cooling degree days 356 247  
Year to date cooling degree days 526 389  
Since 1 June cooling degree days 480 356  
Growing Degree Days 26 (Base 50)    
Moisture  
Dew Point 50 °F    
Average Humidity 54    
Maximum Humidity 84    
Minimum Humidity 24    
Precipitation  
Precipitation 0.00 in 0.00 in 0.00 in (2014)
Month to date precipitation T 0.27  
Year to date precipitation 2.94 5.20  
Snow  
Snow 0.00 in - - ()
Snow Depth 0.00 in    
Sea Level Pressure  
Sea Level Pressure 29.84 in    
Wind  
Wind Speed 5 mph (WSW)    
Max Wind Speed 12 mph    
Max Gust Speed 14 mph    
Visibility 10 miles    
Events      
T = Trace of Precipitation, MM = Missing Value Source: NWS Daily Summary

Daily Weather History Graph

Daily Weather History Graph

Search for Another Location

Airport:

Trip Planner

Search our weather history database for the weather conditions in past years. The results will help you decide how hot, cold, wet, or windy it might be!

Date:

Astronomy

Jul. 29, 2013 Rise Set
Actual Time 5:34 AM PDT 8:30 PM PDT
Civil Twilight 4:59 AM PDT 9:05 PM PDT
Nautical Twilight 4:14 AM PDT 9:49 PM PDT
Astronomical Twilight 3:20 AM PDT 10:43 PM PDT
Moon 11:59 PM PDT (7/29) 1:52 PM PDT (7/29)
Length of Visible Light 16h 05m
Length of Day
14h 55m
Waning Gibbous, 50% of the Moon is Illuminated
Jul 29
Waning Gibbous
Aug 6
New
Aug 14
First Quarter
Aug 20
Full
Aug 28
Last Quarter

Hourly Weather History & Observations

Time (PDT) Temp. Heat Index Dew Point Humidity Pressure Visibility Wind Dir Wind Speed Gust Speed Precip Events Conditions
12:53 AM 69.1 °F - 48.0 °F 47% 29.81 in 10.0 mi SSW 10.4 mph - N/A   Clear
1:53 AM 66.9 °F - 48.0 °F 51% 29.81 in 10.0 mi South 4.6 mph - N/A   Clear
2:53 AM 62.1 °F - 48.9 °F 62% 29.82 in 10.0 mi Calm Calm - N/A   Clear
3:53 AM 63.0 °F - 48.9 °F 60% 29.83 in 10.0 mi WSW 3.5 mph - N/A   Clear
4:53 AM 61.0 °F - 48.9 °F 64% 29.85 in 10.0 mi SW 8.1 mph - N/A   Clear
5:53 AM 63.0 °F - 48.0 °F 58% 29.86 in 10.0 mi SSW 4.6 mph - N/A   Clear
6:53 AM 66.0 °F - 48.0 °F 52% 29.87 in 10.0 mi South 8.1 mph - N/A   Clear
7:53 AM 68.0 °F - 48.9 °F 50% 29.88 in 10.0 mi SSW 5.8 mph - N/A   Clear
8:53 AM 72.0 °F - 48.0 °F 43% 29.88 in 10.0 mi SSW 8.1 mph - N/A   Clear
9:53 AM 75.9 °F - 48.0 °F 37% 29.88 in 10.0 mi WNW 4.6 mph - N/A   Clear
10:53 AM 78.1 °F - 46.9 °F 33% 29.87 in 10.0 mi Calm Calm - N/A   Clear
11:53 AM 81.0 °F - 45.0 °F 28% 29.87 in 10.0 mi WSW 5.8 mph - N/A   Clear
12:53 PM 82.9 °F - 45.0 °F 26% 29.85 in 10.0 mi Calm Calm - N/A   Clear
1:53 PM 84.9 °F - 46.0 °F 26% 29.84 in 10.0 mi Variable 4.6 mph - N/A   Clear
2:53 PM 88.0 °F - 48.9 °F 26% 29.83 in 7.0 mi Calm Calm - N/A   Clear
3:53 PM 88.0 °F - 46.9 °F 24% 29.81 in 10.0 mi Variable 3.5 mph - N/A   Clear
4:53 PM 90.0 °F - 48.9 °F 24% 29.80 in 10.0 mi North 5.8 mph - N/A   Clear
5:53 PM 91.0 °F - 50.0 °F 24% 29.79 in 10.0 mi North 5.8 mph - N/A   Clear
6:53 PM 86.0 °F 84.2 °F 54.0 °F 33% 29.79 in 10.0 mi NNW 5.8 mph - N/A   Clear
7:53 PM 81.0 °F 80.4 °F 53.1 °F 38% 29.80 in 10.0 mi Calm Calm - N/A   Clear
8:53 PM 73.9 °F - 57.9 °F 57% 29.81 in 10.0 mi Calm Calm - N/A   Clear
9:53 PM 70.0 °F - 60.1 °F 71% 29.82 in 10.0 mi Calm Calm - N/A   Clear
10:53 PM 68.0 °F - 59.0 °F 73% 29.83 in 10.0 mi North 5.8 mph - N/A   Clear
11:53 PM 64.9 °F - 59.0 °F 81% 29.85 in 10.0 mi Calm Calm - N/A   Clear